Regional Weather Roundup
Issued by NWS

Home | Current Version | Previous Version | Text Only | Print | Product List | Glossary Off
Versions: 1 2 3 4 5 6 7 8 9 10 11 12 13 14 15 16 17 18 19 20 21 22 23 24 25 26 27 28 29 30 31 32 33 34 35 36 37 38 39 40 41 42 43 44 45 46 47 48 49 50

000
ASUS44 KMEG 261910
RWRTN
TENNESSEE HOURLY STATE WEATHER ROUNDUP
NATIONAL WEATHER SERVICE MEMPHIS TN
200 PM CDT MON SEP 26 2016

TNZ002-004-019-021-049-052-054-088>092-262000-
WEST TENNESSEE

CITY           SKY/WX    TMP DP  RH WIND       PRES   REMARKS
MEMPHIS INTL   CLOUDY    74  60  61 N7        30.10F
NWS MEMPHIS      N/A     71 N/A N/A MISG        N/A
JACKSON        CLOUDY   N/A N/A N/A NE9       30.12F
DYERSBURG      CLOUDY   N/A N/A N/A MISG        N/A
UNION CITY     SUNNY     66  54  63 N9        30.12F
PARIS          SUNNY     66  54  63 N7        30.12F
HUNTINGDON       N/A     68  61  77 CALM      30.10F
LEXINGTON      MOSUNNY   66  61  82 NE6       30.10F
$$

TNZ008-025-027-028-033-062-065-066-262000-
NORTH MIDDLE TENNESSEE

CITY           SKY/WX    TMP DP  RH WIND       PRES   REMARKS
NASHVILLE      LGT RAIN  67  63  87 NW9       30.09F
PORTLAND       CLOUDY    63  61  94 CALM      30.10F
CLARKSVILLE    CLOUDY    67  58  72 N7        30.10F
SMYRNA         LGT RAIN  70  65  84 NW12      30.09F
COOKEVILLE     PTSUNNY   77  68  73 N3        30.06F
GALLATIN       CLOUDY    64  63  94 N9G18     30.11F
CROSSVILLE     MOSUNNY   77  65  66 N13       30.09F
$$

TNZ061-075-076-078-094-096-097-262000-
SOUTH MIDDLE TENNESSEE

CITY           SKY/WX    TMP DP  RH WIND       PRES   REMARKS
FAYETTEVILLE   MOSUNNY   82  68  61 N12       30.04F
TULLAHOMA      PTSUNNY   77  64  65 N13       30.08F
WINCHESTER     MOSUNNY   82  68  61 N3        30.04F
MCMINNVILLE    SUNNY     79  70  73 N9        30.07F
COLUMBIA       SUNNY     73  70  88 N9        30.06F
SHELBYVILLE    MOSUNNY   82  66  57 N7        30.07F
$$

TNZ017-018-042-046-047-262000-
NORTHEAST TENNESSEE

CITY           SKY/WX    TMP DP  RH WIND       PRES   REMARKS
TRI CITIES     CLOUDY    84  65  52 W15       30.02F
ELIZABETHTON   CLOUDY    73  68  83 CALM      30.03F
$$

TNZ012-013-036-069-073-074-262000-
CENTRAL EAST TENNESSEE

CITY           SKY/WX    TMP DP  RH WIND       PRES   REMARKS
KNOXVILLE      TSTM      72  64  78 SW18      30.03R
OAK RIDGE      LGT RAIN  74  67  78 VRB3      30.05S
DOWNTOWN KNOXV PTSUNNY   79  68  69 W10       30.01R
GATLINBURG     SUNNY     90  63  40 SW9       29.98F HX  90
MORRISTOWN     SUNNY     84  66  54 VRB3      30.00F
JACKSBORO      MOSUNNY   73  70  88 CALM      30.06F
$$

TNZ083-085-099-262000-
SOUTHEAST TENNESSEE

CITY           SKY/WX    TMP DP  RH WIND       PRES   REMARKS
CHATTANOOGA    LGT RAIN  71  69  93 CALM      30.04F
$$

SKY/WX REPORTED AS FAIR MEANS FEW OR NO CLOUDS BELOW
12 THOUSAND FEET.





USA.gov is the U.S. government's official web portal to all federal, state and local government web resources and services.